1998-067WE

Last updated on Thu Dec 21 2023 00:02:06 GMT+0000 (Coordinated Universal Time)

1 58613U 98067WE 23353.44724344 .00043018 00000+0 72629-3 0 9995 2 58613 51.6358 130.8840 0004895 355.7748 105.0601 15.51184337 216

Satellite not in orbit

1998-067WE